• In United Kingdom
  • List of Countries
  • For 7 days
  • Water Temperature
  • Satellite Maps
  • Weather Map
  • Weather Widgets
  • user-avatar
    Login

    Hourly Weather Punakha

    Today, 13 November, Tuesday

    Time Temperature Precipitation Wind Pressure Humidity
    00:00 +9°C° 0 mm 1 mps 581 mmHg 80%
    01:00 +9°C° 0 mm 1 mps 581 mmHg 80%
    02:00 +9°C° 0 mm 1 mps 580 mmHg 81%
    03:00 +9°C° 0 mm 1 mps 580 mmHg 81%
    04:00 +9°C° 0 mm 1 mps 580 mmHg 81%
    05:00 +8°C° 0 mm 1 mps 580 mmHg 82%
    06:00 +8°C° 0 mm 1 mps 580 mmHg 82%
    07:00 +9°C° 0 mm 2 mps 581 mmHg 74%
    08:00 +12°C° 0 mm 2 mps 582 mmHg 67%
    09:00 +14°C° 0 mm 2 mps 583 mmHg 60%
    10:00 +15°C° 0 mm 2 mps 583 mmHg 58%
    11:00 +14°C° 0 mm 3 mps 582 mmHg 56%
    12:00 +16°C° 0 mm 3 mps 582 mmHg 56%
    13:00 +16°C° 0.1 mm 3 mps 582 mmHg 62%
    14:00 +14°C° 0.1 mm 3 mps 581 mmHg 67%
    15:00 +13°C° 0.1 mm 3 mps 580 mmHg 72%
    16:00 +12°C° 0.1 mm 3 mps 580 mmHg 80%
    17:00 +12°C° 0.1 mm 2 mps 580 mmHg 87%
    18:00 +10°C° 0 mm 2 mps 579 mmHg 90%
    19:00 +10°C° 0.1 mm 2 mps 580 mmHg 91%
    20:00 +10°C° 0.1 mm 2 mps 580 mmHg 92%
    21:00 +9°C° 0.1 mm 2 mps 580 mmHg 92%
    22:00 +9°C° 0 mm 2 mps 580 mmHg 92%
    23:00 +9°C° 0 mm 2 mps 580 mmHg 92%

    Tomorrow, 14 November, Wednesday

    Time Temperature Precipitation Wind Pressure Humidity
    00:00 +8°C° 0 mm 2 mps 580 mmHg 92%
    01:00 +8°C° 0 mm 2 mps 580 mmHg 90%
    02:00 +9°C° 0 mm 1 mps 580 mmHg 88%
    03:00 +8°C° 0 mm 1 mps 580 mmHg 86%
    04:00 +8°C° 0 mm 1 mps 580 mmHg 84%
    05:00 +8°C° 0 mm 1 mps 580 mmHg 82%
    06:00 +6°C° 0 mm 2 mps 580 mmHg 80%
    07:00 +8°C° 0 mm 2 mps 581 mmHg 73%
    08:00 +10°C° 0 mm 2 mps 582 mmHg 65%
    09:00 +13°C° 0 mm 2 mps 583 mmHg 58%
    10:00 +14°C° 0 mm 2 mps 583 mmHg 56%
    11:00 +14°C° 0 mm 3 mps 583 mmHg 54%
    12:00 +16°C° 0 mm 3 mps 583 mmHg 52%
    13:00 +14°C° 0.1 mm 3 mps 582 mmHg 56%
    14:00 +14°C° 0.1 mm 3 mps 582 mmHg 60%
    15:00 +13°C° 0.1 mm 3 mps 581 mmHg 64%
    16:00 +12°C° 0.1 mm 3 mps 581 mmHg 73%
    17:00 +10°C° 0.1 mm 2 mps 580 mmHg 82%
    18:00 +9°C° 0.1 mm 2 mps 580 mmHg 92%
    19:00 +8°C° 0 mm 2 mps 580 mmHg 89%
    20:00 +8°C° 0 mm 2 mps 581 mmHg 87%
    21:00 +9°C° 0 mm 1 mps 581 mmHg 85%
    22:00 +7°C° 0 mm 2 mps 581 mmHg 84%
    23:00 +7°C° 0 mm 2 mps 581 mmHg 83%

    Day after tomorrow, 15 November, Thursday

    Time Temperature Precipitation Wind Pressure Humidity
    00:00 +7°C° 0 mm 2 mps 581 mmHg 83%
    01:00 +7°C° 0 mm 2 mps 580 mmHg 82%
    02:00 +6°C° 0 mm 2 mps 580 mmHg 81%
    03:00 +6°C° 0 mm 2 mps 580 mmHg 81%
    04:00 +6°C° 0 mm 2 mps 580 mmHg 80%
    05:00 +6°C° 0 mm 2 mps 580 mmHg 79%
    06:00 +6°C° 0 mm 2 mps 580 mmHg 78%
    07:00 +8°C° 0 mm 2 mps 581 mmHg 72%
    08:00 +9°C° 0 mm 2 mps 582 mmHg 67%
    09:00 +12°C° 0 mm 2 mps 583 mmHg 61%
    10:00 +13°C° 0.1 mm 2 mps 583 mmHg 58%
    11:00 +14°C° 0.1 mm 2 mps 583 mmHg 56%
    12:00 +15°C° 0.1 mm 2 mps 583 mmHg 54%
    13:00 +15°C° 0.1 mm 2 mps 582 mmHg 55%
    14:00 +15°C° 0.1 mm 2 mps 582 mmHg 56%
    15:00 +14°C° 0.1 mm 2 mps 581 mmHg 57%
    16:00 +12°C° 0 mm 2 mps 580 mmHg 69%
    17:00 +9°C° 0 mm 2 mps 580 mmHg 81%
    18:00 +8°C° 0 mm 1 mps 579 mmHg 93%
    19:00 +8°C° 0 mm 1 mps 580 mmHg 89%
    20:00 +8°C° 0 mm 1 mps 580 mmHg 85%
    21:00 +8°C° 0 mm 1 mps 580 mmHg 81%
    22:00 +8°C° 0 mm 1 mps 580 mmHg 80%
    23:00 +8°C° 0 mm 1 mps 580 mmHg 78%

    16 November, Friday

    Time Temperature Precipitation Wind Pressure Humidity
    00:00 +6°C° 0 mm 2 mps 580 mmHg 76%
    01:00 +7°C° 0 mm 1 mps 580 mmHg 74%
    02:00 +7°C° 0 mm 1 mps 579 mmHg 71%
    03:00 +7°C° 0 mm 1 mps 579 mmHg 69%
    04:00 +7°C° 0 mm 1 mps 579 mmHg 69%
    05:00 +6°C° 0 mm 1 mps 579 mmHg 69%
    06:00 +6°C° 0 mm 1 mps 579 mmHg 69%
    07:00 +7°C° 0 mm 2 mps 581 mmHg 65%
    08:00 +10°C° 0 mm 2 mps 582 mmHg 62%
    09:00 +13°C° 0 mm 2 mps 583 mmHg 58%
    10:00 +14°C° 0 mm 2 mps 583 mmHg 58%
    11:00 +13°C° 0 mm 3 mps 583 mmHg 58%
    12:00 +14°C° 0 mm 3 mps 582 mmHg 57%
    13:00 +14°C° 0.1 mm 3 mps 581 mmHg 61%
    14:00 +13°C° 0.1 mm 3 mps 581 mmHg 65%
    15:00 +13°C° 0.1 mm 3 mps 580 mmHg 70%
    16:00 +12°C° 0.1 mm 2 mps 579 mmHg 78%
    17:00 +10°C° 0.1 mm 2 mps 579 mmHg 86%
    18:00 +8°C° 0.1 mm 2 mps 579 mmHg 94%
    19:00 +8°C° 0 mm 2 mps 579 mmHg 93%
    20:00 +9°C° 0 mm 1 mps 579 mmHg 93%
    21:00 +9°C° 0 mm 1 mps 580 mmHg 92%
    22:00 +8°C° 0 mm 1 mps 580 mmHg 91%
    23:00 +8°C° 0 mm 1 mps 579 mmHg 91%

    17 November, Saturday

    Time Temperature Precipitation Wind Pressure Humidity
    00:00 +8°C° 0 mm 1 mps 579 mmHg 90%
    01:00 +8°C° 0 mm 1 mps 579 mmHg 89%
    02:00 +8°C° 0 mm 1 mps 579 mmHg 88%
    03:00 +7°C° 0 mm 1 mps 578 mmHg 87%
    04:00 +7°C° 0 mm 1 mps 578 mmHg 86%
    05:00 +7°C° 0 mm 1 mps 578 mmHg 85%
    06:00 +6°C° 0 mm 1 mps 578 mmHg 84%
    07:00 +8°C° 0 mm 1 mps 579 mmHg 76%
    08:00 +9°C° 0 mm 2 mps 581 mmHg 69%
    09:00 +12°C° 0 mm 2 mps 582 mmHg 62%
    10:00 +13°C° 0 mm 2 mps 582 mmHg 59%
    11:00 +14°C° 0 mm 2 mps 581 mmHg 56%
    12:00 +14°C° 0 mm 3 mps 581 mmHg 53%
    13:00 +14°C° 0 mm 3 mps 581 mmHg 54%
    14:00 +13°C° 0 mm 3 mps 580 mmHg 55%
    15:00 +13°C° 0 mm 3 mps 580 mmHg 56%
    16:00 +12°C° 0 mm 2 mps 579 mmHg 68%
    17:00 +9°C° 0 mm 2 mps 578 mmHg 81%
    18:00 +8°C° 0 mm 1 mps 578 mmHg 94%
    19:00 +8°C° 0 mm 1 mps 578 mmHg 91%
    20:00 +8°C° 0 mm 1 mps 579 mmHg 88%
    21:00 +8°C° 0 mm 1 mps 579 mmHg 85%
    22:00 +7°C° 0 mm 1 mps 579 mmHg 82%
    23:00 +7°C° 0 mm 1 mps 579 mmHg 80%

    18 November, Sunday

    Time Temperature Precipitation Wind Pressure Humidity
    00:00 +7°C° 0 mm 1 mps 579 mmHg 78%
    01:00 +7°C° 0 mm 1 mps 579 mmHg 76%
    02:00 +7°C° 0 mm 1 mps 579 mmHg 74%
    03:00 +6°C° 0 mm 1 mps 579 mmHg 72%
    04:00 +6°C° 0 mm 1 mps 579 mmHg 71%
    05:00 +6°C° 0 mm 1 mps 579 mmHg 70%
    06:00 +6°C° 0 mm 1 mps 579 mmHg 70%
    07:00 +8°C° 0 mm 1 mps 581 mmHg 64%
    08:00 +11°C° 0 mm 1 mps 582 mmHg 58%
    09:00 +13°C° 0 mm 2 mps 584 mmHg 53%
    10:00 +14°C° 0 mm 2 mps 584 mmHg 53%
    11:00 +15°C° 0 mm 2 mps 583 mmHg 53%
    12:00 +16°C° 0 mm 3 mps 583 mmHg 53%
    13:00 +14°C° 0 mm 3 mps 583 mmHg 57%
    14:00 +14°C° 0 mm 3 mps 582 mmHg 62%
    15:00 +13°C° 0 mm 3 mps 581 mmHg 66%
    16:00 +12°C° 0 mm 2 mps 581 mmHg 76%
    17:00 +10°C° 0 mm 2 mps 580 mmHg 85%
    18:00 +9°C° 0 mm 1 mps 580 mmHg 94%
    19:00 +9°C° 0 mm 1 mps 580 mmHg 92%
    20:00 +8°C° 0 mm 1 mps 581 mmHg 89%
    21:00 +8°C° 0 mm 1 mps 581 mmHg 87%
    22:00 +8°C° 0 mm 1 mps 581 mmHg 85%
    23:00 +8°C° 0 mm 1 mps 581 mmHg 83%
    Show more